This demonstration page uses our WeatherBlox Daily Observations layout. Learn more.

Left ArrowRight Arrow

30.00354, -91.81873

Hourly Observations for August 3, 2022

Temp ( °F °C ) Dew Point ( °F °C ) Humidity (%) Winds ( mph kmh ) Pressure ( in mb ) Visibility ( mi km ) Precip ( " mm )
12:53 am 00:53 Clear 76 24.4 74 23.3 94 94 SSE 3 6 29.99 1016 10 16 0.00 0.00
1:53 am 01:53 Clear 76 24.4 74 23.3 94 94 S 5 7 29.98 1015 10 16 0.00 0.00
2:53 am 02:53 Mostly Clear 77 25 74 23.3 90 90 Calm 29.98 1015 10 16 0.00 0.00
3:53 am 03:53 Partly Cloudy 77 25 75 23.9 94 94 E 6 9 29.98 1015 10 16 0.00 0.00
4:53 am 04:53 Clear 77 25 74 23.3 90 90 SE 3 6 29.98 1015 8 13 0.00 0.00
5:53 am 05:53 Clear 77 25 75 23.9 94 94 SE 3 6 29.98 1015 10 16 0.00 0.00
6:53 am 06:53 Mostly Cloudy 78 25.6 76 24.4 93 93 Calm 30.00 1016 9 14 0.00 0.00
7:07 am 07:07 Cloudy with Nearby Thunderstorms 78 25.6 75 23.9 90 90 S 9 15 30.01 1016 9 14 0.00 0.00
7:32 am 07:32 Partly Cloudy with Thunderstorms 76 24.4 73 22.8 91 91 S 8 13 30.00 1016 10 16 0.00 0.00
7:53 am 07:53 Mostly Cloudy 76 24.4 72 22.2 88 88 SSE 6 9 30.01 1016 10 16 0.00 0.00
8:02 am 08:02 Cloudy 76 24.4 72 22.2 88 88 SSE 5 7 30.01 1016 10 16 0.00 0.00
8:14 am 08:14 Partly Cloudy 76 24.4 72 22.2 88 88 E 5 7 30.01 1016 10 16 0.00 0.00
8:24 am 08:24 Partly Cloudy with Nearby Thunderstorms 76 24.4 73 22.8 91 91 E 5 7 30.01 1016 10 16 0.00 0.00
8:39 am 08:39 Sunny 76 24.4 72 22.2 88 88 SE 5 7 30.00 1016 10 16 0.00 0.00
8:53 am 08:53 Sunny 77 25 73 22.8 88 88 SSE 6 9 30.01 1016 10 16 0.00 0.00
9:53 am 09:53 Mostly Cloudy 79 26.1 74 23.3 85 85 ESE 7 11 30.02 1017 10 16 0.00 0.00
10:41 am 10:41 Partly Cloudy with Nearby Thunderstorms 81 27.2 75 23.9 82 82 SE 9 15 30.01 1016 10 16 0.00 0.00
10:53 am 10:53 Mostly Cloudy with Thunderstorms 80 26.7 75 23.9 85 85 ESE 12 19 30.01 1016 10 16 0.00 0.00
11:06 am 11:06 Cloudy with Thunderstorms 77 25 72 22.2 85 85 WNW 10 17 30.05 1018 2 3 0.10 2.54
11:13 am 11:13 Cloudy with Strong Thunderstorms 73 22.8 69 20.6 87 87 VRB 3 6 30.05 1018 0 0 0.54 13.72
11:25 am 11:25 Cloudy with Strong Thunderstorms 73 22.8 70 21.1 90 90 S 6 9 30.06 1018 1 1 0.87 22.10
11:41 am 11:41 Cloudy with Strong Thunderstorms 73 22.8 70 21.1 90 90 ESE 8 13 30.06 1018 2 3 1.08 27.43
11:43 am 11:43 Cloudy with Strong Thunderstorms 73 22.8 70 21.1 90 90 ESE 9 15 30.07 1018 2 3 1.09 27.69
11:48 am 11:48 Cloudy with Thunderstorms 73 23 70 21 89 89 E 10 17 30.07 1018 3 5 1.10 27.94
11:53 am 11:53 Cloudy with Thunderstorms 74 23.3 71 21.7 91 91 ESE 6 9 30.06 1018 4 6 1.12 28.45
12:02 pm 12:02 Cloudy with Thunderstorms 74 23.3 71 21.7 91 91 S 5 7 30.05 1018 4 6 0.01 0.25
12:14 pm 12:14 Cloudy with Thunderstorms 73 22.8 70 21.1 90 90 SW 13 20 30.05 1018 5 8 0.02 0.51
12:53 pm 12:53 Cloudy with Thunderstorms 74 23.3 72 22.2 94 94 SW 14 22 30.05 1018 4 6 0.07 1.78
1:10 pm 13:10 Mostly Cloudy with Nearby Thunderstorms 74 23.3 71 21.7 91 91 WSW 13 20 30.05 1018 7 11 0.01 0.25
1:18 pm 13:18 Mostly Cloudy with Thunderstorms 74 23.3 71 21.7 91 91 WSW 10 17 30.05 1018 5 8 0.03 0.76
1:40 pm 13:40 Cloudy with Nearby Thunderstorms 74 23.3 71 21.7 91 91 WSW 6 9 30.05 1018 3 5 0.06 1.52
1:53 pm 13:53 Cloudy with Nearby Thunderstorms 74 23.3 71 21.7 91 91 SW 14 22 30.04 1017 3 5 0.10 2.54
2:10 pm 14:10 Cloudy with Nearby Thunderstorms 74 23.3 71 21.7 91 91 WSW 10 17 30.03 1017 2 3 0.10 2.54
2:21 pm 14:21 Cloudy with Nearby Thunderstorms 74 23.3 71 21.7 91 91 WSW 9 15 30.03 1017 5 8 0.12 3.05
2:33 pm 14:33 Mostly Cloudy with Rain 75 23.9 71 21.7 88 88 WSW 9 15 30.01 1016 5 8 0.14 3.56
2:40 pm 14:40 Mostly Cloudy with Light Rain 75 23.9 71 21.7 88 88 SW 10 17 30.00 1016 1 2 0.16 4.06
2:45 pm 14:45 Partly Cloudy with Light Rain 75 23.9 72 22.2 90 90 WSW 12 19 29.99 1016 5 8 0.16 4.06
2:53 pm 14:53 Partly Cloudy with Light Rain 74 23.3 71 21.7 91 91 SW 10 17 29.97 1015 10 16 0.17 4.32
3:53 pm 15:53 Mostly Cloudy 76 24.4 71 21.7 85 85 Calm 29.95 1014 10 16 0.01 0.25
4:53 pm 16:53 Sunny 77 25 74 23.3 90 90 ESE 9 15 29.96 1015 10 16 0.00 0.00
5:53 pm 17:53 Sunny 78 25.6 74 23.3 87 87 Calm 29.96 1015 10 16 0.00 0.00
6:53 pm 18:53 Sunny 78 25.6 74 23.3 87 87 SE 5 7 29.95 1014 10 16 0.00 0.00
7:53 pm 19:53 Sunny 77 25 74 23.3 90 90 E 3 6 29.96 1015 10 16 0.00 0.00
8:53 pm 20:53 Clear 76 24.4 74 23.3 94 94 ESE 5 7 29.96 1015 10 16 0.00 0.00
9:53 pm 21:53 Clear 76 24.4 73 22.8 91 91 E 5 7 29.98 1015 10 16 0.00 0.00
10:53 pm 22:53 Clear 76 24.4 73 22.8 91 91 ESE 7 11 29.99 1016 10 16 0.00 0.00
11:53 pm 23:53 Clear 75 23.9 73 22.8 94 94 Calm 29.99 1016 10 16 0.00 0.00

Powered by AerisWeather